Date String (YYYY-MM-DD hh:mm:ss) UTC,Instrument flags,Ambient pressure (hPa),Sample flow (lpm),Bypass flow (lpm),Sample temperature (°C),Ambient temperature (°C),ASC tube jacket temperature (°C),LED temperature (°C),Box temperature (°C),Sample RH (%),Span deviation,Mass concentration (μg/m³),Mass concentration (μg/m³),Mass concentration (μg/m³)
DateTimeUTC,F1_M11,P_M11,Q1_M11,Q2_M11,T1_M11,T2_M11,T3_M11,T4_M11,T5_M11,U1_M11,ZSPAN_M11,X0_M11,X2_M11,X1_M11
2023-02-28 20:00:00,,0810.3,5.00,0.00,22.0,20.9,00.0,30.6,23.7,10.6,0000.0,0002.40,0000.42,0000.13
2023-02-28 20:01:00,,0810.3,5.01,0.00,21.9,20.8,00.0,30.6,23.6,10.5,0000.0,0002.36,0000.42,0000.14
2023-02-28 20:02:00,,0810.3,4.99,0.00,21.9,20.7,00.0,30.6,23.6,10.5,0000.0,0002.38,0000.43,0000.14
2023-02-28 20:03:00,,0810.3,5.00,0.00,21.9,20.6,00.0,30.6,23.6,10.2,0000.0,0002.42,0000.44,0000.14
2023-02-28 20:04:00,,0810.3,4.98,0.00,21.9,20.5,00.0,30.6,23.5,10.7,0000.0,0002.40,0000.43,0000.14
2023-02-28 20:05:00,,0810.3,5.00,0.00,21.9,20.5,00.0,30.6,23.5,10.7,0000.0,0002.20,0000.43,0000.14
2023-02-28 20:06:00,,0810.3,5.02,0.00,21.9,20.4,00.0,30.6,23.5,10.6,0000.0,0002.06,0000.43,0000.14
2023-02-28 20:07:00,,0810.4,4.98,0.00,21.8,20.3,00.0,30.6,23.5,10.4,0000.0,0001.18,0000.41,0000.14
2023-02-28 20:08:00,,0810.5,5.03,0.00,21.8,20.3,00.0,30.6,23.5,10.4,0000.0,0001.21,0000.41,0000.15
2023-02-28 20:09:00,,0810.4,4.99,0.00,21.8,20.2,00.0,30.6,23.5,10.4,0000.0,0000.94,0000.38,0000.15
2023-02-28 20:10:00,,0810.5,5.01,0.00,21.8,20.2,00.0,30.6,23.4,10.3,0000.0,0000.85,0000.35,0000.14
2023-02-28 20:11:00,,0810.5,4.99,0.00,21.8,20.2,00.0,30.6,23.4,10.4,0000.0,0000.80,0000.34,0000.14
2023-02-28 20:12:00,,0810.6,5.00,0.00,21.8,20.1,00.0,30.6,23.4,10.5,0000.0,0000.83,0000.34,0000.14
2023-02-28 20:13:00,,0810.6,4.98,0.00,21.7,20.1,00.0,30.6,23.4,10.2,0000.0,0000.90,0000.34,0000.13
2023-02-28 20:14:00,,0810.6,5.02,0.00,21.7,20.1,00.0,30.5,23.4,10.4,0000.0,0000.85,0000.33,0000.13
2023-02-28 20:15:00,,0810.7,5.00,0.00,21.7,20.1,00.0,30.5,23.3,10.7,0000.0,0000.87,0000.35,0000.13
2023-02-28 20:16:00,,0810.9,4.98,0.00,21.7,20.1,00.0,30.5,23.3,10.5,0000.0,0000.88,0000.35,0000.13
2023-02-28 20:17:00,,0810.9,5.01,0.00,21.7,20.1,00.0,30.5,23.4,10.7,0000.0,0000.83,0000.32,0000.13
2023-02-28 20:18:00,,0810.9,5.00,0.00,21.7,20.0,00.0,30.5,23.3,10.7,0000.0,0000.89,0000.31,0000.13
2023-02-28 20:19:00,,0811.0,5.01,0.00,21.7,20.0,00.0,30.5,23.3,10.9,0000.0,0001.04,0000.33,0000.12
2023-02-28 20:20:00,,0811.0,5.00,0.00,21.7,20.1,00.0,30.5,23.3,11.1,0000.0,0001.39,0000.43,0000.12
2023-02-28 20:21:00,,0811.0,5.00,0.00,21.6,20.0,00.0,30.5,23.3,10.9,0000.0,0001.63,0000.48,0000.13
2023-02-28 20:22:00,,0810.9,5.00,0.00,21.6,20.0,00.0,30.4,23.3,10.4,0000.0,0001.73,0000.48,0000.13
2023-02-28 20:23:00,,0811.0,5.02,0.00,21.6,20.3,00.0,30.4,23.4,10.4,0000.0,0001.69,0000.48,0000.13
2023-02-28 20:24:00,,0811.0,5.00,0.00,21.7,21.5,00.0,30.4,23.7,10.0,0000.0,0002.03,0000.57,0000.15
2023-02-28 20:25:00,,0810.9,5.01,0.00,21.9,22.8,00.0,30.4,24.0,10.1,0000.0,0002.15,0000.61,0000.15
2023-02-28 20:26:00,,0811.0,4.99,0.00,22.0,22.9,00.0,30.5,24.1,09.3,0000.0,0002.41,0000.68,0000.16
2023-02-28 20:27:00,,0811.0,5.00,0.00,22.1,22.4,00.0,30.6,24.1,09.0,0000.0,0002.51,0000.72,0000.16
2023-02-28 20:28:00,,0810.9,5.03,0.00,22.1,21.9,00.0,30.6,23.9,09.1,0000.0,0002.66,0000.75,0000.17
2023-02-28 20:29:00,,0811.0,4.99,0.00,22.1,21.6,00.0,30.6,23.9,09.4,0000.0,0002.73,0000.79,0000.17
2023-02-28 20:30:00,,0811.0,5.00,0.00,22.1,21.3,00.0,30.7,23.8,09.4,0000.0,0002.84,0000.76,0000.17
2023-02-28 20:31:00,,0811.0,5.01,0.00,22.1,21.1,00.0,30.7,23.8,09.8,0000.0,0002.56,0000.67,0000.17
2023-02-28 20:32:00,,0811.0,4.99,0.00,22.0,20.9,00.0,30.7,23.7,10.2,0000.0,0002.34,0000.64,0000.16
2023-02-28 20:33:00,,0811.0,4.99,0.00,22.0,20.8,00.0,30.7,23.7,10.1,0000.0,0002.28,0000.64,0000.17
2023-02-28 20:34:00,,0810.9,4.96,0.00,22.0,20.6,00.0,30.7,23.6,09.9,0000.0,0002.28,0000.64,0000.16
2023-02-28 20:35:00,,0811.0,4.96,0.00,22.0,20.5,00.0,30.7,23.6,09.6,0000.0,0001.86,0000.54,0000.14
2023-02-28 20:36:00,,0811.0,4.99,0.00,21.9,20.4,00.0,30.7,23.5,09.6,0000.0,0001.80,0000.52,0000.14
2023-02-28 20:37:00,,0811.1,5.01,0.00,21.9,20.4,00.0,30.7,23.5,10.1,0000.0,0001.53,0000.43,0000.14
2023-02-28 20:38:00,,0811.1,5.00,0.00,21.9,20.3,00.0,30.7,23.5,10.1,0000.0,0001.59,0000.40,0000.14
2023-02-28 20:39:00,,0811.2,5.00,0.00,21.9,20.3,00.0,30.7,23.5,10.1,0000.0,0002.47,0000.40,0000.14
2023-02-28 20:40:00,,0811.1,5.04,0.00,21.9,20.2,00.0,30.7,23.4,10.2,0000.0,0002.46,0000.39,0000.14
2023-02-28 20:41:00,,0811.2,5.00,0.00,21.8,20.2,00.0,30.7,23.4,10.1,0000.0,0002.16,0000.40,0000.14
2023-02-28 20:42:00,,0811.2,4.99,0.00,21.8,20.1,00.0,30.7,23.4,10.2,0000.0,0002.45,0000.38,0000.14
2023-02-28 20:43:00,,0811.1,5.01,0.00,21.8,20.1,00.0,30.6,23.4,09.9,0000.0,0002.62,0000.37,0000.14
2023-02-28 20:44:00,,0811.1,5.01,0.00,21.8,20.1,00.0,30.6,23.4,10.1,0000.0,0002.59,0000.36,0000.14
2023-02-28 20:45:00,,0811.1,5.00,0.00,21.7,20.1,00.0,30.6,23.3,09.8,0000.0,0002.62,0000.38,0000.14
2023-02-28 20:46:00,,0811.0,5.00,0.00,21.7,20.1,00.0,30.6,23.3,09.6,0000.0,0002.62,0000.38,0000.15
2023-02-28 20:47:00,,0811.0,5.01,0.00,21.7,20.4,00.0,30.6,23.4,09.4,0000.0,0002.66,0000.40,0000.15
2023-02-28 20:48:00,,0811.0,5.01,0.00,21.8,21.6,00.0,30.5,23.7,09.0,0000.0,0002.96,0000.42,0000.15
2023-02-28 20:49:00,,0810.9,5.03,0.00,22.0,22.9,00.0,30.6,24.1,09.3,0000.0,0002.86,0000.39,0000.15
2023-02-28 20:50:00,,0810.9,5.01,0.00,22.1,22.9,00.0,30.6,24.2,09.1,0000.0,0001.86,0000.37,0000.15
2023-02-28 20:51:00,,0810.9,4.96,0.00,22.1,22.3,00.0,30.7,24.1,08.8,0000.0,0001.57,0000.36,0000.15
2023-02-28 20:52:00,,0811.0,4.99,0.00,22.1,21.9,00.0,30.7,24.0,08.7,0000.0,0002.20,0000.40,0000.15
2023-02-28 20:53:00,,0811.0,4.99,0.00,22.1,21.6,00.0,30.7,23.9,08.8,0000.0,0002.55,0000.45,0000.16
2023-02-28 20:54:00,,0810.9,5.02,0.00,22.1,21.3,00.0,30.8,23.8,08.8,0000.0,0003.14,0000.47,0000.16
2023-02-28 20:55:00,,0811.0,4.97,0.00,22.1,21.0,00.0,30.8,23.8,08.7,0000.0,0003.36,0000.49,0000.17
2023-02-28 20:56:00,,0811.0,5.00,0.00,22.1,20.9,00.0,30.8,23.7,08.5,0000.0,0003.36,0000.49,0000.18
2023-02-28 20:57:00,,0811.0,5.02,0.00,22.1,20.7,00.0,30.8,23.7,08.4,0000.0,0003.30,0000.47,0000.19
2023-02-28 20:58:00,,0811.0,5.01,0.00,22.0,20.6,00.0,30.8,23.7,08.5,0000.0,0003.78,0000.48,0000.19
2023-02-28 20:59:00,,0810.9,4.97,0.00,22.0,20.5,00.0,30.8,23.6,08.5,0000.0,0004.01,0000.58,0000.21
